Location: Bernadets
(43.3537°N, 0.3167°E)
Time: 00:34:18
(UTC+00:00)

X-37B - Pass Details

Date: 24 October 2021
Orbit: 330 x 341 km, 45.0° (Epoch: 20 November)

Event Time Altitude Azimuth Distance (km) Brightness Sun altitude
Rises 17:37:42 0° 283° (WNW) 2,127 5.8 -7.3°
Reaches altitude 10° 17:39:43 10° 285° (WNW) 1,287 4.4 -7.6°
Maximum altitude 17:42:36 79° 11° (N) 351 0.3 -8.2°
Enters shadow 17:45:16 12° 99° (E) 1,196 2.4 -8.6°
